GW0206 Weather Reports


Display with metric or nautical units.
time (UTC)temp
F
wind
direction
speed
MPH
gust
MPH
rain 1hr
in
rain 24hr
in
rain mn
in
humidity
%
barometer
mb
20260831022016 72 262 2.0 5.0 0.00 0.00 0.00 88 1020.8
20260831021516 72 236 2.0 5.0 0.00 0.00 0.00 88 1020.8
20260831021012 72 244 2.0 4.0 0.00 0.00 0.00 87 1020.8
20260831020516 72 242 2.0 4.0 0.00 0.00 0.00 87 1020.9
20260831020034 72 243 2.0 3.0 0.00 0.00 0.00 87 1020.9
20260831015514 73 248 2.0 4.0 0.00 0.00 0.00 87 1020.9
20260831015009 73 248 2.0 4.0 0.00 0.00 0.00 86 1021.0
20260831014534 73 248 1.0 3.0 0.00 0.00 0.00 86 1021.0
20260831014011 73 241 1.0 3.0 0.00 0.00 0.00 86 1020.9
20260831013514 73 241 1.0 3.0 0.00 0.00 0.00 86 1020.9
20260831013028 73 248 1.0 2.0 0.00 0.00 0.00 86 1020.9
20260831012512 73 242 0.0 2.0 0.00 0.00 0.00 87 1021.0
20260831012008 73 242 0.0 2.0 0.00 0.00 0.00 87 1021.0
20260831011536 73 242 1.0 2.0 0.00 0.00 0.00 86 1021.0
20260831011016 73 242 1.0 2.0 0.00 0.00 0.00 86 1020.9
20260831010518 73 242 1.0 4.0 0.00 0.00 0.00 86 1020.9
20260831010029 73 242 1.0 4.0 0.00 0.00 0.00 86 1020.9
20260831005517 73 231 2.0 4.0 0.00 0.00 0.00 85 1020.7
20260831005018 73 199 1.0 3.0 0.00 0.00 0.00 85 1020.7
20260831004536 73 196 0.0 3.0 0.00 0.00 0.00 85 1020.7
20260831004016 73 196 0.0 2.0 0.00 0.00 0.00 85 1020.7
20260831003512 73 190 0.0 2.0 0.00 0.00 0.00 84 1020.6
20260831003030 74 186 0.0 3.0 0.00 0.00 0.00 84 1020.5
20260831002511 74 198 0.0 3.0 0.00 0.00 0.00 84 1020.6
20260831002014 74 195 0.0 4.0 0.00 0.00 0.00 84 1020.5
20260831001530 74 167 1.0 4.0 0.00 0.00 0.00 83 1020.4
20260831001016 74 117 0.0 1.0 0.00 0.00 0.00 83 1020.4
20260831000514 74 117 0.0 0.0 0.00 0.00 0.00 83 1020.1
20260831000033 74 117 0.0 0.0 0.00 0.00 0.00 83 1020.0
20260830235518 74 117 0.0 0.0 0.00 0.00 0.00 83 1019.9
20260830235018 74 117 0.0 0.0 0.00 0.00 0.00 83 1019.7
20260830234540 75 117 0.0 1.0 0.00 0.00 0.00 82 1019.6
20260830234005 75 117 0.0 1.0 0.00 0.00 0.00 82 1019.5
20260830233506 75 117 0.0 2.0 0.00 0.00 0.00 82 1019.5
20260830233003 75 117 0.0 2.0 0.00 0.00 0.00 82 1019.4
20260830232504 75 117 0.0 0.0 0.00 0.00 0.00 81 1019.3
20260830232003 75 117 0.0 0.0 0.00 0.00 0.00 81 1019.3
20260830231503 75 117 0.0 0.0 0.00 0.00 0.00 80 1019.2
20260830231003 76 117 0.0 0.0 0.00 0.00 0.00 80 1019.2
20260830230505 76 117 0.0 2.0 0.00 0.00 0.00 80 1019.1
20260830230008 76 117 0.0 2.0 0.00 0.00 0.00 80 1019.1
20260830225504 76 117 1.0 4.0 0.00 0.00 0.00 79 1019.1
20260830225003 76 122 1.0 6.0 0.00 0.00 0.00 80 1019.2
20260830224511 76 98 2.0 10.0 0.00 0.00 0.00 79 1019.0
20260830224004 76 307 5.0 10.0 0.00 0.00 0.00 78 1018.4
20260830223503 76 312 4.0 7.0 0.00 0.00 0.00 78 1018.4
20260830223010 76 310 2.0 4.0 0.00 0.00 0.00 77 1018.8
20260830222510 77 320 1.0 3.0 0.00 0.00 0.00 78 1018.9
20260830222002 77 302 1.0 3.0 0.00 0.00 0.00 78 1019.0
20260830221508 77 309 1.0 3.0 0.00 0.00 0.00 77 1019.1
20260830221003 77 302 2.0 3.0 0.00 0.00 0.00 77 1019.1
20260830220503 77 297 1.0 3.0 0.00 0.00 0.00 77 1019.2
20260830220004 77 234 0.0 1.0 0.00 0.00 0.00 78 1019.2
20260830215504 77 234 0.0 2.0 0.00 0.00 0.00 75 1019.2
20260830215002 77 234 0.0 2.0 0.00 0.00 0.00 78 1019.4
20260830214511 77 234 0.0 1.0 0.00 0.00 0.00 80 1019.4
20260830214006 77 242 0.0 2.0 0.00 0.00 0.00 81 1019.3
20260830213507 76 242 0.0 2.0 0.00 0.00 0.00 82 1019.4
20260830213015 76 242 0.0 2.0 0.00 0.00 0.00 81 1019.3
20260830212503 76 242 0.0 3.0 0.00 0.00 0.00 79 1019.2
20260830212003 77 242 1.0 3.0 0.00 0.00 0.00 77 1019.1
20260830211518 77 298 1.0 2.0 0.00 0.00 0.00 77 1019.1
20260830211012 77 298 1.0 2.0 0.00 0.00 0.00 78 1019.1
20260830210502 77 61 0.0 2.0 0.00 0.00 0.00 77 1019.2
20260830210013 78 68 0.0 6.0 0.00 0.00 0.00 78 1019.3
20260830205504 78 55 1.0 6.0 0.00 0.00 0.00 75 1019.4
20260830205003 78 57 2.0 7.0 0.00 0.00 0.00 76 1019.4
20260830204507 78 38 3.0 7.0 0.00 0.00 0.00 74 1019.4
20260830204003 79 17 2.0 5.0 0.00 0.00 0.00 74 1019.5
20260830203503 79 55 2.0 5.0 0.00 0.00 0.00 74 1019.6
20260830203006 79 52 1.0 5.0 0.00 0.00 0.00 74 1019.6
20260830202507 79 33 0.0 3.0 0.00 0.00 0.00 73 1019.7
20260830202007 79 33 1.0 4.0 0.00 0.00 0.00 72 1019.9
20260830201523 79 79 2.0 4.0 0.00 0.00 0.00 72 1019.9
20260830201004 79 52 1.0 4.0 0.00 0.00 0.00 71 1019.9
20260830200508 79 49 2.0 5.0 0.00 0.00 0.00 72 1020.0
20260830200026 79 119 2.0 5.0 0.00 0.00 0.00 71 1020.1
20260830195513 79 80 2.0 4.0 0.00 0.00 0.00 72 1020.2
20260830195004 79 63 0.0 4.0 0.00 0.00 0.00 74 1020.3
20260830194517 79 47 2.0 5.0 0.00 0.00 0.00 72 1020.3
20260830194015 79 55 3.0 5.0 0.00 0.00 0.00 72 1020.4
20260830193503 79 107 0.0 3.0 0.00 0.00 0.00 74 1020.6
20260830193013 79 128 1.0 3.0 0.00 0.00 0.00 73 1020.6
20260830192505 79 119 1.0 3.0 0.00 0.00 0.00 74 1020.7
20260830192004 78 101 0.0 3.0 0.00 0.00 0.00 73 1020.8
20260830191518 79 101 1.0 3.0 0.00 0.00 0.00 72 1020.9
20260830191008 79 128 1.0 3.0 0.00 0.00 0.00 71 1021.0
20260830190509 79 109 0.0 3.0 0.00 0.00 0.00 72 1021.1
20260830190018 79 133 0.0 3.0 0.00 0.00 0.00 71 1021.1
20260830185508 79 130 1.0 3.0 0.00 0.00 0.00 72 1021.2
20260830185011 79 125 0.0 3.0 0.00 0.00 0.00 70 1021.2
20260830184528 80 125 1.0 3.0 0.00 0.00 0.00 71 1021.3
20260830184005 80 97 0.0 4.0 0.00 0.00 0.00 71 1021.3
20260830183509 80 121 0.0 4.0 0.00 0.00 0.00 69 1021.4
20260830183030 80 119 1.0 4.0 0.00 0.00 0.00 70 1021.4
20260830182517 81 125 0.0 3.0 0.00 0.00 0.00 68 1021.4
20260830182005 81 110 0.0 4.0 0.00 0.00 0.00 70 1021.3
20260830181512 81 155 1.0 5.0 0.00 0.00 0.00 69 1021.3
20260830181004 81 64 0.0 5.0 0.00 0.00 0.00 69 1021.3
20260830180503 81 65 1.0 4.0 0.00 0.00 0.00 69 1021.3
20260830180039 81 130 1.0 4.0 0.00 0.00 0.00 67 1021.3
20260830175510 81 88 0.0 7.0 0.00 0.00 0.00 71 1021.4
20260830175009 81 124 2.0 8.0 0.00 0.00 0.00 67 1021.4
20260830174515 81 109 2.0 9.0 0.00 0.00 0.00 71 1021.5
20260830174008 80 67 4.0 9.0 0.00 0.00 0.00 71 1021.5
20260830173511 80 130 1.0 7.0 0.00 0.00 0.00 74 1021.6
20260830173048 79 50 3.0 7.0 0.00 0.00 0.00 73 1021.6
20260830172506 79 67 3.0 7.0 0.00 0.00 0.00 72 1021.8
20260830172013 79 132 1.0 7.0 0.00 0.00 0.00 77 1021.9
20260830171534 79 81 0.0 8.0 0.00 0.00 0.00 76 1021.8
20260830171010 78 120 2.0 8.0 0.00 0.00 0.00 78 1021.9
20260830170511 78 117 2.0 5.0 0.00 0.00 0.00 77 1022.0
20260830170014 77 99 1.0 4.0 0.00 0.00 0.00 80 1022.2
20260830165507 77 142 1.0 4.0 0.00 0.00 0.00 83 1022.2
20260830165008 76 96 0.0 3.0 0.00 0.00 0.00 81 1022.2
20260830164520 76 190 0.0 3.0 0.00 0.00 0.00 81 1022.2
20260830164009 76 126 0.0 3.0 0.00 0.00 0.00 83 1022.3
20260830163512 76 132 0.0 3.0 0.00 0.00 0.00 82 1022.2
20260830163023 75 99 0.0 3.0 0.00 0.00 0.00 83 1022.2
20260830162514 75 99 1.0 3.0 0.00 0.00 0.00 84 1022.1
20260830162018 75 121 1.0 3.0 0.00 0.00 0.00 83 1022.1
20260830161515 75 113 0.0 3.0 0.00 0.00 0.00 82 1022.1
20260830161013 75 49 1.0 3.0 0.00 0.00 0.00 82 1022.0
20260830160513 74 49 0.0 0.0 0.00 0.00 0.00 83 1022.1
20260830160034 75 80 0.0 0.0 0.00 0.00 0.00 83 1022.0
20260830155507 74 80 0.0 3.0 0.00 0.00 0.00 83 1022.0
20260830155012 74 80 0.0 3.0 0.00 0.00 0.00 82 1022.0
20260830154516 74 80 1.0 3.0 0.00 0.00 0.00 81 1022.0
20260830154008 75 103 1.0 3.0 0.00 0.00 0.00 81 1022.1
20260830153511 75 32 1.0 2.0 0.00 0.00 0.00 79 1021.9
20260830153024 75 25 0.0 2.0 0.00 0.00 0.00 80 1021.8
20260830152515 75 43 1.0 3.0 0.00 0.00 0.00 79 1021.9
20260830152009 75 43 0.0 4.0 0.00 0.00 0.00 80 1022.0
20260830151526 75 43 2.0 4.0 0.00 0.00 0.00 78 1022.0
20260830151014 75 49 1.0 3.0 0.00 0.00 0.00 79 1022.1
20260830150515 75 77 1.0 3.0 0.00 0.00 0.00 78 1022.1
20260830150037 75 77 1.0 3.0 0.00 0.00 0.00 79 1022.0
20260830145514 75 77 1.0 3.0 0.00 0.00 0.00 77 1021.9
20260830145017 75 54 1.0 5.0 0.00 0.00 0.00 77 1021.9
20260830144535 75 59 1.0 5.0 0.00 0.00 0.00 75 1021.8
20260830144003 75 57 1.0 4.0 0.00 0.00 0.00 75 1021.7
20260830143503 76 35 1.0 4.0 0.00 0.00 0.00 77 1021.5
20260830143004 75 52 1.0 4.0 0.00 0.00 0.00 74 1021.5
20260830142502 75 50 1.0 4.0 0.00 0.00 0.00 75 1021.4
20260830142002 76 93 1.0 4.0 0.00 0.00 0.00 75 1021.3
20260830141509 76 36 1.0 4.0 0.00 0.00 0.00 74 1021.1
20260830141004 76 53 0.0 5.0 0.00 0.00 0.00 75 1021.0
20260830140503 76 49 1.0 5.0 0.00 0.00 0.00 75 1020.9
20260830140007 76 70 1.0 5.0 0.00 0.00 0.00 74 1020.9
20260830135504 76 13 2.0 5.0 0.00 0.00 0.00 75 1020.9
20260830135002 76 20 2.0 6.0 0.00 0.00 0.00 75 1020.8
20260830134507 75 11 0.0 6.0 0.00 0.00 0.00 77 1020.8
20260830134003 75 5 2.0 5.0 0.00 0.00 0.00 76 1020.9
20260830133501 74 53 1.0 4.0 0.00 0.00 0.00 77 1020.9
20260830133006 73 56 1.0 4.0 0.00 0.00 0.00 79 1020.9
20260830132502 72 30 2.0 4.0 0.00 0.00 0.00 79 1020.9
20260830132004 72 33 1.0 4.0 0.00 0.00 0.00 80 1021.0
20260830131506 71 25 1.0 4.0 0.00 0.00 0.00 81 1020.9
20260830131003 71 36 1.0 4.0 0.00 0.00 0.00 81 1021.0
20260830130503 70 44 1.0 4.0 0.00 0.00 0.00 81 1021.0
20260830130008 69 335 1.0 4.0 0.00 0.00 0.00 83 1020.9
20260830125502 69 42 2.0 5.0 0.00 0.00 0.00 83 1020.9
20260830125002 68 30 2.0 5.0 0.00 0.00 0.00 84 1021.0
20260830124507 67 40 1.0 3.0 0.00 0.00 0.00 85 1021.0
20260830124002 67 39 1.0 4.0 0.00 0.00 0.00 84 1021.1
20260830123505 67 9 1.0 4.0 0.00 0.00 0.00 85 1021.1
20260830123017 66 29 1.0 3.0 0.00 0.00 0.00 85 1021.0
20260830122503 66 43 1.0 3.0 0.00 0.00 0.00 86 1020.9
20260830122003 66 10 0.0 2.0 0.00 0.00 0.00 86 1021.0
20260830121507 66 14 0.0 2.0 0.00 0.00 0.00 85 1020.9
20260830121002 66 13 0.0 2.0 0.00 0.00 0.00 85 1021.0
20260830120506 66 13 0.0 3.0 0.00 0.00 0.00 85 1021.0
20260830120009 66 13 0.0 3.0 0.00 0.00 0.00 85 1020.9
20260830115502 66 351 0.0 3.0 0.00 0.00 0.00 85 1020.9
20260830115005 65 351 0.0 3.0 0.00 0.00 0.00 84 1020.8
20260830114516 65 348 1.0 3.0 0.00 0.00 0.00 84 1020.8
20260830114004 65 343 0.0 3.0 0.00 0.00 0.00 84 1020.8
20260830113503 65 315 0.0 3.0 0.00 0.00 0.00 84 1020.9
20260830113009 65 328 0.0 3.0 0.00 0.00 0.00 84 1021.0
20260830112503 65 321 0.0 3.0 0.00 0.00 0.00 84 1021.0
20260830112003 65 331 0.0 3.0 0.00 0.00 0.00 84 1021.0
20260830111512 65 315 0.0 2.0 0.00 0.00 0.00 84 1021.0
20260830111007 65 305 0.0 2.0 0.00 0.00 0.00 84 1020.9
20260830110503 65 305 0.0 2.0 0.00 0.00 0.00 83 1021.0
20260830110008 65 305 0.0 2.0 0.00 0.00 0.00 84 1021.0
20260830105506 65 305 0.0 2.0 0.00 0.00 0.00 84 1021.0
20260830105007 65 305 0.0 2.0 0.00 0.00 0.00 83 1020.9
20260830104503 65 305 0.0 3.0 0.00 0.00 0.00 83 1020.9
20260830104003 65 271 1.0 3.0 0.00 0.00 0.00 83 1020.8
20260830103504 65 281 0.0 3.0 0.00 0.00 0.00 83 1020.8
20260830103003 65 281 1.0 3.0 0.00 0.00 0.00 83 1020.8
20260830102503 65 281 1.0 3.0 0.00 0.00 0.00 83 1020.7
20260830102006 65 328 1.0 2.0 0.00 0.00 0.00 83 1020.7
20260830101511 65 328 0.0 2.0 0.00 0.00 0.00 83 1020.8
20260830101002 65 328 0.0 2.0 0.00 0.00 0.00 83 1020.8
20260830100503 65 328 0.0 2.0 0.00 0.00 0.00 83 1020.9
20260830100021 65 328 1.0 2.0 0.00 0.00 0.00 83 1020.9
20260830095507 65 331 0.0 0.0 0.00 0.00 0.00 83 1020.9
20260830095003 65 331 0.0 3.0 0.00 0.00 0.00 83 1020.9
20260830094517 65 335 0.0 3.0 0.00 0.00 0.00 83 1021.0
20260830094007 65 321 1.0 3.0 0.00 0.00 0.00 83 1020.9
20260830093503 65 360 0.0 3.0 0.00 0.00 0.00 83 1020.8
20260830093003 65 5 0.0 1.0 0.00 0.00 0.00 83 1020.8
20260830092503 65 331 0.0 0.0 0.00 0.00 0.00 83 1020.8
20260830092004 65 331 0.0 0.0 0.00 0.00 0.00 83 1020.7
20260830091510 65 331 0.0 3.0 0.00 0.00 0.00 83 1020.6
20260830091003 65 331 0.0 3.0 0.00 0.00 0.00 83 1020.6
20260830090508 65 331 0.0 2.0 0.00 0.00 0.00 83 1020.6
20260830090027 65 331 0.0 3.0 0.00 0.00 0.00 83 1020.7
20260830085507 65 299 1.0 3.0 0.00 0.00 0.00 83 1020.8
20260830085009 65 324 0.0 3.0 0.00 0.00 0.00 83 1020.8
20260830084524 65 320 1.0 2.0 0.00 0.00 0.00 83 1020.9
20260830084004 66 319 0.0 3.0 0.00 0.00 0.00 83 1021.0
20260830083505 66 319 0.0 3.0 0.00 0.00 0.00 83 1021.0
20260830083021 66 290 0.0 3.0 0.00 0.00 0.00 83 1021.0
20260830082508 66 290 0.0 3.0 0.00 0.00 0.00 82 1021.0
20260830082004 66 290 1.0 3.0 0.00 0.00 0.00 82 1021.0
20260830081518 66 303 0.0 3.0 0.00 0.00 0.00 81 1021.0
20260830081001 66 314 0.0 2.0 0.00 0.00 0.00 81 1021.0
20260830080506 66 314 1.0 2.0 0.00 0.00 0.00 81 1021.1
20260830080013 66 314 1.0 4.0 0.00 0.00 0.00 81 1021.1
20260830075509 66 317 1.0 4.0 0.00 0.00 0.00 81 1021.1
20260830075010 66 313 2.0 4.0 0.00 0.00 0.00 81 1021.1
20260830074509 66 300 1.0 4.0 0.00 0.00 0.00 81 1021.2
20260830074012 66 313 2.0 4.0 0.00 0.00 0.00 81 1021.2
20260830073513 66 319 1.0 4.0 0.00 0.00 0.00 81 1021.2
20260830073028 66 314 2.0 4.0 0.00 0.00 0.00 81 1021.2
20260830072506 66 317 2.0 4.0 0.00 0.00 0.00 81 1021.1
20260830072015 66 303 1.0 4.0 0.00 0.00 0.00 81 1021.2
20260830071528 66 294 1.0 4.0 0.00 0.00 0.00 81 1021.3
20260830071010 66 317 2.0 4.0 0.00 0.00 0.00 81 1021.3
20260830070510 66 312 2.0 4.0 0.00 0.00 0.00 81 1021.3
20260830070027 66 315 1.0 4.0 0.00 0.00 0.00 81 1021.2
20260830065512 66 317 1.0 4.0 0.00 0.00 0.00 81 1021.2
20260830065004 66 305 1.0 4.0 0.00 0.00 0.00 81 1021.2
20260830064519 65 305 1.0 4.0 0.00 0.00 0.00 82 1021.3
20260830064009 65 307 1.0 3.0 0.00 0.00 0.00 82 1021.3
20260830063510 65 306 1.0 3.0 0.00 0.00 0.00 82 1021.3
20260830063018 65 311 1.0 3.0 0.00 0.00 0.00 82 1021.4
20260830062509 65 310 0.0 3.0 0.00 0.00 0.00 83 1021.4
20260830062012 65 310 1.0 3.0 0.00 0.00 0.00 83 1021.4
20260830061530 65 336 1.0 4.0 0.00 0.00 0.00 83 1021.5
20260830061007 65 315 1.0 4.0 0.00 0.00 0.00 84 1021.5
20260830060511 65 290 1.0 3.0 0.00 0.00 0.00 84 1021.5
20260830060031 65 289 1.0 2.0 0.00 0.00 0.00 84 1021.6
20260830055507 65 290 1.0 2.0 0.00 0.00 0.00 84 1021.6
20260830055013 65 326 0.0 3.0 0.00 0.00 0.00 84 1021.6
20260830054531 65 326 0.0 3.0 0.00 0.00 0.00 84 1021.5
20260830054009 65 326 1.0 3.0 0.00 0.00 0.00 84 1021.5
20260830053505 65 311 2.0 3.0 0.00 0.00 0.00 85 1021.5
20260830053002 65 328 0.0 3.0 0.00 0.00 0.00 86 1021.5
20260830052502 65 317 1.0 3.0 0.00 0.00 0.00 86 1021.4
20260830052006 65 319 0.0 3.0 0.00 0.00 0.00 85 1021.5
20260830051503 65 325 1.0 3.0 0.00 0.00 0.00 85 1021.5
20260830051003 65 331 1.0 3.0 0.00 0.00 0.00 85 1021.4
20260830050502 65 313 1.0 3.0 0.00 0.00 0.00 85 1021.3
20260830050005 66 325 1.0 3.0 0.00 0.00 0.00 84 1021.3
20260830045502 66 321 1.0 3.0 0.00 0.00 0.00 83 1021.4
20260830045002 66 305 0.0 1.0 0.00 0.00 0.00 82 1021.3
20260830044508 66 305 0.0 1.0 0.00 0.00 0.00 81 1021.3
20260830044005 67 305 0.0 1.0 0.00 0.00 0.00 80 1021.4
20260830043502 67 305 0.0 0.0 0.00 0.00 0.00 80 1021.4
20260830043010 67 305 0.0 0.0 0.00 0.00 0.00 79 1021.4
20260830042508 67 305 0.0 1.0 0.00 0.00 0.00 79 1021.4
20260830042005 68 305 0.0 3.0 0.00 0.00 0.00 79 1021.4
20260830041508 68 305 0.0 3.0 0.00 0.00 0.00 78 1021.3
20260830041009 68 305 1.0 2.0 0.00 0.00 0.00 78 1021.1
20260830040509 68 305 1.0 3.0 0.00 0.00 0.00 77 1021.1
20260830040009 69 305 1.0 3.0 0.00 0.00 0.00 77 1021.2
20260830035502 69 311 1.0 3.0 0.00 0.00 0.00 77 1021.2
20260830035004 69 327 1.0 3.0 0.00 0.00 0.00 77 1021.1
20260830034508 69 328 0.0 4.0 0.00 0.00 0.00 77 1021.2
20260830034002 69 328 1.0 4.0 0.00 0.00 0.00 77 1021.2
20260830033501 69 298 2.0 4.0 0.00 0.00 0.00 76 1021.1
20260830033010 69 308 1.0 4.0 0.00 0.00 0.00 76 1021.2
20260830032504 69 305 2.0 4.0 0.00 0.00 0.00 75 1021.1
20260830032002 69 305 2.0 5.0 0.00 0.00 0.00 75 1021.1
20260830031517 69 299 2.0 5.0 0.00 0.00 0.00 75 1021.1
20260830031010 69 324 2.0 5.0 0.00 0.00 0.00 76 1021.1
20260830030504 68 300 2.0 5.0 0.00 0.00 0.00 76 1021.1
20260830030020 68 311 1.0 3.0 0.00 0.00 0.00 76 1021.1
20260830025508 69 299 0.0 2.0 0.00 0.00 0.00 76 1021.3
20260830025013 69 293 0.0 2.0 0.00 0.00 0.00 76 1021.3
20260830024509 69 293 0.0 2.0 0.00 0.00 0.00 76 1021.3
20260830024003 69 291 0.0 2.0 0.00 0.00 0.00 76 1021.3
20260830023504 69 291 1.0 2.0 0.00 0.00 0.00 75 1021.4
20260830023019 69 291 0.0 1.0 0.00 0.00 0.00 76 1021.4
20260830022502 69 291 0.0 1.0 0.00 0.00 0.00 75 1021.5